AirNav   Bose ProFlight Series 2 Headset
 
 797 users online  

MO41 Landing Pad
Troy, Missouri, USA

GOING TO TROY?


FAA INFORMATION EFFECTIVE 02 JANUARY 2020

Location

FAA Identifier: MO41
Lat/Long: 38-58-55.6700N 090-57-47.1100W
38-58.927833N 090-57.785167W
38.9821306,-90.9630861
(estimated)
Elevation: 520 ft. / 158 m (estimated)
Variation: 01E (1995)
Time zone: UTC -6 (UTC -5 during Daylight Saving Time)
Zip code: 63379

Heliport Operations

Heliport use: Private use, MEDICAL USE.
Activation date: 10/1997
Control tower: no
ARTCC: KANSAS CITY CENTER
FSS: SAINT LOUIS FLIGHT SERVICE STATION
Attendance: CONTINUOUS
Wind indicator: yes
Segmented circle: no
Lights: FOR PERIMETER AND FLOOD LGTS CALL 314-528-8551.

Nearby radio navigation aids

VOR radial/distance  VOR name  Freq  Var
FTZr356/17.3FORISTELL VORTAC110.8005E
STLr287/23.6ST LOUIS VORTAC117.4001E

Heliport Services

Runway Information

Helipad H1

Dimensions: 50 x 50 ft. / 15 x 15 m
Surface: concrete
Runway edge lights: PERI
INGROUND GREEN LED LGTS AND FLOOD LGTS.
Latitude: 38-58.927833N
Longitude: 090-57.785167W
Elevation: 520.0 ft.
Traffic pattern: leftleft

Heliport Ownership and Management from official FAA records

Ownership: Privately-owned
Owner: LINCOLN COUNTY MEMORIAL HOSP.
1000 EAST CHERRY STREET
TROY, MO 63379
Phone 314-528-8551
Manager: ED JACQUIN.
1000 EAST CHERRY STREET
TROY, MO 63379
Phone 314-528-8551

Additional Remarks

OWNER DESIRES HELIPORT NOT BE CHARTED.
FOR CD CTC ST LOUIS APCH AT 314-890-1018.

Instrument Procedures

There are no published instrument procedures at MO41.

Some nearby airports with instrument procedures:

KFYG - Washington Regional Airport (24 nm S)
KSUS - Spirit of St Louis Airport (24 nm SE)
KSET - St Charles County Smartt Airport (25 nm E)
H19 - Bowling Green Municipal Airport (26 nm NW)
1H0 - Creve Coeur Airport (26 nm SE)
 
Loc | Ops | Rwys | IFR | FBO | Links
Com | Nav | Svcs | Stats | Notes

Kansas City Aviation Department
 
Area around MO41 (Landing Pad)
 
Road maps at: MapQuest Bing Google
 
Aerial photo
No photo
 
Sectional chart

 
Airport distance calculator
Flying to Landing Pad? Find the distance to fly.

From to MO41

Sunrise and sunset
Times for 22-Jan-2020
 Local
(UTC-6)
 Zulu
(UTC)
Morning civil twilight06:5012:50
Sunrise07:1913:19
Sunset17:1223:12
Evening civil twilight17:4123:41

Current date and time
Zulu (UTC)  23-Jan-2020 05:36:22
Local (UTC-6)  22-Jan-2020 23:36:22
 
METAR
KFYG 
24nm S 
230515Z AUTO 13006KT 5SM -RA SCT024 BKN037 BKN060 00/00 A3007 RMK AO2
KSUS 
25nm SE 
230454Z AUTO 17006KT 8SM -RA FEW013 SCT022 OVC050 01/M02 A3009 RMK AO2 SLP198 P0002 T00061017
KSET 
25nm E 
230454Z AUTO 15009KT 5SM -FZRA BR BKN016 OVC030 01/M01 A3010 RMK AO2 SLP196 I1004 T00061011 PNO $
KSTL 
31nm SE 
230451Z 15009KT 7SM -FZRA BKN011 OVC047 00/M02 A3010 RMK AO2 PLE32 SLP203 P0003 T00001022
KPPQ 
40nm N 
230515Z AUTO 17011KT 10SM OVC012 00/00 A3006 RMK AO2 T00001005
KMYJ 
41nm W 
230515Z AUTO 16008KT 10SM BKN010 BKN034 OVC040 00/M01 A3002 RMK AO2
KALN 
44nm E 
230515Z AUTO 15010KT 7SM UP SCT015 BKN038 OVC045 00/00 A3011 RMK AO2 T10031005
KCPS 
45nm SE 
230453Z AUTO 15010KT 5SM -FZRA FEW019 SCT042 OVC050 00/M03 A3012 RMK AO2 SLP202 P0002 I1002 T00001028
TAF
KSUS 
25nm SE 
221727Z 2218/2318 16012KT P6SM OVC250 FM222100 16010KT P6SM OVC100 FM230000 16009KT P6SM -RAPL OVC030 FM230400 16009KT 4SM -FZRA OVC014 FM230800 17008KT 4SM -FZRAPL OVC008
NOTAMs
Click for the latest NOTAMs
NOTAMs are issued by the DoD/FAA and will open in a separate window not controlled by AirNav.

 

 
 

Would you like to see your business listed on this page?

 If your business provides an interesting product or service to pilots, flight crews, aircraft, or users of the Landing Pad, you should consider listing it here.  To start the listing process, click on the button below
 
Add a business
 

Other Pages about Landing Pad

Update a link
 
Copyright © AirNav, LLC. All rights reserved. Privacy Policy  Contact